AKT1739 BGSF-CYDF

Flight info

Callsign AKT1739
Flight time N/A
Altitude 36000
Route BAVKO1B BAVKO DCT MS DCT ENNSO/N0458F360 DCT HOIST DCT IRLOK DCT JANJO DCT YAY/N0385F160 V381 YDF
Aircraft B38M/M-SDE1FGHILORVWXY/HB1

Departure

Time 2026-04-19 17:38
Airport Kangerlussuaq International Airport (BGSF)

Arrival

Time N/A
Airport Deer Lake Airport (CYDF)
Time Latitude Longitude Altitude Speed Heading
2026-04-19 17:22 67.00883 -50.70830 180 ft 0 kts 328°
2026-04-19 17:33 67.00888 -50.70836 180 ft 4 kts 332°
2026-04-19 17:33 67.00931 -50.70817 181 ft 9 kts 27°
2026-04-19 17:34 67.00991 -50.70716 182 ft 12 kts 49°
2026-04-19 17:34 67.01038 -50.70526 188 ft 14 kts 60°
2026-04-19 17:34 67.01088 -50.70291 193 ft 16 kts 62°
2026-04-19 17:34 67.01144 -50.70024 203 ft 16 kts 61°
2026-04-19 17:35 67.01197 -50.69774 195 ft 15 kts 61°
2026-04-19 17:35 67.01245 -50.69563 206 ft 12 kts 56°
2026-04-19 17:35 67.01299 -50.69434 203 ft 9 kts 37°
2026-04-19 17:35 67.01345 -50.69347 206 ft 8 kts 37°
2026-04-19 17:36 67.01398 -50.69241 207 ft 12 kts 38°
2026-04-19 17:36 67.01474 -50.69101 212 ft 15 kts 32°
2026-04-19 17:36 67.01557 -50.68969 212 ft 8 kts 32°
2026-04-19 17:36 67.01586 -50.68922 208 ft 2 kts 32°
2026-04-19 17:37 67.01648 -50.68826 216 ft 18 kts 27°
2026-04-19 17:37 67.01686 -50.68994 209 ft 24 kts 241°
2026-04-19 17:37 67.01508 -50.69801 206 ft 80 kts 242°
2026-04-19 17:37 67.01163 -50.71440 179 ft 127 kts 242°
2026-04-19 17:38 67.00694 -50.73649 299 ft 154 kts 241°
2026-04-19 17:38 67.00134 -50.76081 723 ft 166 kts 238°
2026-04-19 17:38 66.99461 -50.78584 1146 ft 175 kts 233°
2026-04-19 17:38 66.98755 -50.81199 1750 ft 185 kts 235°
2026-04-19 17:39 66.98018 -50.83981 2310 ft 194 kts 235°
2026-04-19 17:39 66.97248 -50.86899 2698 ft 206 kts 235°
2026-04-19 17:39 66.96412 -50.89999 3088 ft 218 kts 229°
2026-04-19 17:39 66.95377 -50.92950 3531 ft 228 kts 223°
2026-04-19 17:40 66.94225 -50.95925 3996 ft 240 kts 221°
2026-04-19 17:40 66.93048 -50.99013 4644 ft 244 kts 221°
2026-04-19 17:40 66.91879 -51.02139 5343 ft 246 kts 221°
2026-04-19 17:40 66.90689 -51.05318 6054 ft 249 kts 221°
2026-04-19 17:41 66.89484 -51.08514 6711 ft 251 kts 221°
2026-04-19 17:41 66.88264 -51.11741 7365 ft 254 kts 221°
2026-04-19 17:41 66.87029 -51.15007 8009 ft 257 kts 221°
2026-04-19 17:41 66.85779 -51.18308 8655 ft 260 kts 221°
2026-04-19 17:42 66.84527 -51.21610 9293 ft 264 kts 221°
2026-04-19 17:42 66.83245 -51.24986 9899 ft 266 kts 221°
2026-04-19 17:42 66.81968 -51.28343 10392 ft 272 kts 222°
2026-04-19 17:42 66.80628 -51.31855 10739 ft 283 kts 223°
2026-04-19 17:43 66.79235 -51.35499 11097 ft 294 kts 223°
2026-04-19 17:43 66.77789 -51.39287 11598 ft 301 kts 223°
2026-04-19 17:43 66.76324 -51.43118 12119 ft 305 kts 223°
2026-04-19 17:43 66.74824 -51.47026 12709 ft 310 kts 223°
2026-04-19 17:44 66.73327 -51.50917 13299 ft 313 kts 224°
2026-04-19 17:44 66.71766 -51.54790 13857 ft 315 kts 216°
2026-04-19 17:44 66.69865 -51.57578 14384 ft 316 kts 204°
2026-04-19 17:44 66.67833 -51.59816 14902 ft 319 kts 203°
2026-04-19 17:45 66.65778 -51.62031 15435 ft 322 kts 203°
2026-04-19 17:45 66.63728 -51.64269 15956 ft 325 kts 203°
2026-04-19 17:45 66.61639 -51.66569 16482 ft 328 kts 203°
2026-04-19 17:45 66.59536 -51.68872 17020 ft 331 kts 203°
2026-04-19 17:46 66.57413 -51.71181 17535 ft 333 kts 203°
2026-04-19 17:46 66.55273 -51.73507 18057 ft 336 kts 203°
2026-04-19 17:46 66.53122 -51.75844 18502 ft 339 kts 203°
2026-04-19 17:46 66.50968 -51.78180 18929 ft 342 kts 204°
2026-04-19 17:47 66.48774 -51.80554 19387 ft 345 kts 204°
2026-04-19 17:47 66.46556 -51.82948 19816 ft 347 kts 204°
2026-04-19 17:47 66.44321 -51.85360 20230 ft 350 kts 204°
2026-04-19 17:47 66.42080 -51.87804 20658 ft 353 kts 204°
2026-04-19 17:48 66.39831 -51.90264 21072 ft 355 kts 204°
2026-04-19 17:48 66.37580 -51.92707 21479 ft 358 kts 204°
2026-04-19 17:48 66.35279 -51.95193 21888 ft 361 kts 205°
2026-04-19 17:48 66.32964 -51.97693 22294 ft 363 kts 205°
2026-04-19 17:49 66.30632 -52.00211 22697 ft 366 kts 205°
2026-04-19 17:49 66.28281 -52.02742 23086 ft 369 kts 205°
2026-04-19 17:49 66.25913 -52.05284 23432 ft 371 kts 205°
2026-04-19 17:49 66.23551 -52.07816 23744 ft 374 kts 205°
2026-04-19 17:50 66.21149 -52.10386 24072 ft 377 kts 205°
2026-04-19 17:50 66.18734 -52.12965 24399 ft 379 kts 205°
2026-04-19 17:50 66.16300 -52.15557 24730 ft 381 kts 206°
2026-04-19 17:50 66.13860 -52.18150 25046 ft 383 kts 206°
2026-04-19 17:51 66.11397 -52.20763 25350 ft 385 kts 206°
2026-04-19 17:51 66.08958 -52.23345 25654 ft 387 kts 206°
2026-04-19 17:51 66.06459 -52.25984 25974 ft 389 kts 206°
2026-04-19 17:51 66.03960 -52.28618 26279 ft 391 kts 206°
2026-04-19 17:52 66.01446 -52.31261 26613 ft 393 kts 206°
2026-04-19 17:52 65.98925 -52.33908 26914 ft 395 kts 206°
2026-04-19 17:52 65.96392 -52.36561 27206 ft 397 kts 206°
2026-04-19 17:52 65.93835 -52.39232 27512 ft 398 kts 207°
2026-04-19 17:53 65.91275 -52.41900 27823 ft 400 kts 207°
2026-04-19 17:53 65.88738 -52.44541 28115 ft 401 kts 207°
2026-04-19 17:53 65.86156 -52.47223 28395 ft 402 kts 207°
2026-04-19 17:53 65.83570 -52.49901 28638 ft 403 kts 207°
2026-04-19 17:54 65.80986 -52.52578 28907 ft 404 kts 207°
2026-04-19 17:54 65.78406 -52.55232 29210 ft 406 kts 207°
2026-04-19 17:54 65.76674 -52.57012 29383 ft 408 kts 207°
2026-04-19 17:54 65.74045 -52.59715 29659 ft 409 kts 207°
2026-04-19 17:55 65.71416 -52.62411 29860 ft 410 kts 207°
2026-04-19 17:55 65.67915 -52.65992 30138 ft 413 kts 207°
2026-04-19 17:55 65.65260 -52.68701 30356 ft 414 kts 207°
2026-04-19 17:55 65.62597 -52.71411 30583 ft 416 kts 208°
2026-04-19 17:56 65.60792 -52.73243 30735 ft 416 kts 208°
2026-04-19 17:56 65.58148 -52.75925 30964 ft 418 kts 208°
2026-04-19 17:56 65.55456 -52.78648 31189 ft 419 kts 208°
2026-04-19 17:56 65.52757 -52.81372 31401 ft 421 kts 208°
2026-04-19 17:57 65.50040 -52.84108 31616 ft 422 kts 208°
2026-04-19 17:57 65.47320 -52.86842 31823 ft 424 kts 208°
2026-04-19 17:57 65.44620 -52.89549 32030 ft 425 kts 208°
2026-04-19 17:57 65.41875 -52.92266 32224 ft 428 kts 206°
2026-04-19 17:58 65.39014 -52.94459 32432 ft 435 kts 201°
2026-04-19 17:58 65.36035 -52.96058 32627 ft 439 kts 198°
2026-04-19 17:58 65.33033 -52.97499 32866 ft 438 kts 199°
2026-04-19 17:58 65.30073 -52.99161 33179 ft 435 kts 201°
2026-04-19 17:59 65.27173 -53.00924 33478 ft 434 kts 201°
2026-04-19 17:59 65.24233 -53.02602 33756 ft 435 kts 200°
2026-04-19 17:59 65.21279 -53.04185 33998 ft 434 kts 200°
2026-04-19 17:59 65.18329 -53.05799 34235 ft 433 kts 201°
2026-04-19 18:00 65.15413 -53.07452 34467 ft 433 kts 201°
2026-04-19 18:00 65.12476 -53.09106 34705 ft 433 kts 200°
2026-04-19 18:00 65.09533 -53.10723 34931 ft 433 kts 200°
2026-04-19 18:00 65.06629 -53.12313 35153 ft 433 kts 200°
2026-04-19 18:01 65.03688 -53.13939 35373 ft 432 kts 200°
2026-04-19 18:01 65.00748 -53.15565 35586 ft 433 kts 200°
2026-04-19 18:01 64.97813 -53.17175 35789 ft 433 kts 200°
2026-04-19 18:01 64.94879 -53.18776 35975 ft 432 kts 200°
2026-04-19 18:02 64.91968 -53.20367 36154 ft 433 kts 200°
2026-04-19 18:02 64.89052 -53.21960 36343 ft 433 kts 200°
2026-04-19 18:02 64.86106 -53.23563 36530 ft 434 kts 200°
2026-04-19 18:02 64.83146 -53.25167 36717 ft 434 kts 200°
2026-04-19 18:03 64.80193 -53.26766 36901 ft 435 kts 199°
2026-04-19 18:03 64.77278 -53.28342 37079 ft 435 kts 199°
2026-04-19 18:03 64.74318 -53.29938 37240 ft 436 kts 199°
2026-04-19 18:03 64.71354 -53.31532 37390 ft 437 kts 199°
2026-04-19 18:04 64.68379 -53.33129 37533 ft 438 kts 199°
2026-04-19 18:04 64.65401 -53.34723 37658 ft 440 kts 199°
2026-04-19 18:04 64.59541 -53.37836 37678 ft 423 kts 199°
2026-04-19 18:05 64.53807 -53.40903 37680 ft 424 kts 199°
2026-04-19 18:05 64.48075 -53.43926 37686 ft 425 kts 199°
2026-04-19 18:06 64.42304 -53.46969 37688 ft 425 kts 199°
2026-04-19 18:06 64.36552 -53.49986 37689 ft 425 kts 199°
2026-04-19 18:07 64.27929 -53.54479 37683 ft 418 kts 199°
2026-04-19 18:08 64.22238 -53.57441 37653 ft 420 kts 200°
2026-04-19 18:08 64.16516 -53.60397 37700 ft 425 kts 199°
2026-04-19 18:09 64.10733 -53.63369 37700 ft 426 kts 199°
2026-04-19 18:09 64.04953 -53.66331 37696 ft 425 kts 199°
2026-04-19 18:10 63.99184 -53.69274 37698 ft 424 kts 199°
2026-04-19 18:10 63.93494 -53.72160 37688 ft 419 kts 200°
2026-04-19 18:11 63.87764 -53.75068 37694 ft 421 kts 200°
2026-04-19 18:11 63.82046 -53.77943 37695 ft 422 kts 200°
2026-04-19 18:12 63.76290 -53.80834 37693 ft 422 kts 200°
2026-04-19 18:12 63.70558 -53.83697 37695 ft 422 kts 199°
2026-04-19 18:13 63.64819 -53.86553 37696 ft 422 kts 199°
2026-04-19 18:13 63.59101 -53.89382 37692 ft 419 kts 200°
2026-04-19 18:14 63.53433 -53.92184 37695 ft 418 kts 200°
2026-04-19 18:14 63.47743 -53.94984 37701 ft 423 kts 200°
2026-04-19 18:15 63.41985 -53.97798 37704 ft 425 kts 200°
2026-04-19 18:15 63.36205 -54.00615 37705 ft 426 kts 200°
2026-04-19 18:16 63.30400 -54.03434 37702 ft 426 kts 200°
2026-04-19 18:16 63.24595 -54.06239 37699 ft 426 kts 200°
2026-04-19 18:17 63.18846 -54.09008 37708 ft 425 kts 200°
2026-04-19 18:17 63.13044 -54.11789 37707 ft 425 kts 200°
2026-04-19 18:18 63.07253 -54.14555 37704 ft 425 kts 200°
2026-04-19 18:18 63.01507 -54.17288 37703 ft 425 kts 200°
2026-04-19 18:19 62.95715 -54.20030 37691 ft 422 kts 200°
2026-04-19 18:19 62.89997 -54.22731 37695 ft 423 kts 200°
2026-04-19 18:20 62.84215 -54.25447 37693 ft 424 kts 200°
2026-04-19 18:20 62.78438 -54.28152 37698 ft 425 kts 200°